Woodinville, Washington, United States (98072)
Lat: 47.75N, Lon: 122.16W
Wx Zone: WAZ505
Local Info
Past Weather Observations for Yesterday

NOTE: This archive is for the closest National Weather Service station to Woodinville. Information may differ from the station used for current weather conditions.

Click here for Long-term Archive

Time Weather Temperature Dewpoint Humidity Pressure Winds Precip Visibility
23:53
Clear
46°F / 8°C 43°F / 6°C 87% 30.12 in
(1020 mb)
ESE 3.5 mph
(ESE 6 kph)
- 9SM
22:53
Partly Cloudy
48°F / 9°C 43°F / 6°C 82% 30.09 in
(1019 mb)
Calm - 10SM
21:53
Clear
48°F / 9°C 45°F / 7°C 87% 30.06 in
(1018 mb)
SSE 8.1 mph
(SSE 13 kph)
- 10SM
20:53
Clear
46°F / 8°C 45°F / 7°C 93% 30.06 in
(1018 mb)
S 10.4 mph
(S 17 kph)
- 10SM
19:53
Clear
48°F / 9°C 45°F / 7°C 87% 30.06 in
(1018 mb)
S 5.8 mph
(S 9 kph)
- 10SM
18:53
Clear
50°F / 10°C 45°F / 7°C 82% 30.06 in
(1018 mb)
SSE 8.1 mph
(SSE 13 kph)
- 10SM
17:53
Partly Cloudy
50°F / 10°C 46°F / 8°C 88% 30.04 in
(1017 mb)
Calm - 10SM
16:53
Partly Cloudy
50°F / 10°C 46°F / 8°C 88% 30.04 in
(1017 mb)
ESE 4.6 mph
(ESE 7 kph)
- 10SM
15:53
Partly Cloudy
52°F / 11°C 45°F / 7°C 77% 30.01 in
(1016 mb)
Calm - 10SM
14:53
Mostly Cloudy
50°F / 10°C 45°F / 7°C 82% 30.01 in
(1016 mb)
SW 4.6 mph
(SW 7 kph)
- 10SM
13:53
Overcast
52°F / 11°C 46°F / 8°C 82% 29.98 in
(1015 mb)
Calm - 10SM
12:53
Overcast
52°F / 11°C 46°F / 8°C 82% 29.98 in
(1015 mb)
SSE 5.8 mph
(SSE 9 kph)
- 10SM
11:57
Overcast
48°F / 9°C 45°F / 7°C 87% 29.95 in
(1014 mb)
SSE 10.4 mph
(SSE 17 kph)
- 10SM
11:53
Overcast
50°F / 10°C 45°F / 7°C 82% 29.95 in
(1014 mb)
SSE 9.2 mph
(SSE 15 kph)
- 10SM
10:53
Partly Cloudy
48°F / 9°C 45°F / 7°C 87% 29.92 in
(1013 mb)
SE 6.9 mph
(SE 11 kph)
- 10SM
09:53
Partly Cloudy
48°F / 9°C 45°F / 7°C 87% 29.92 in
(1013 mb)
Calm - 10SM
08:53
Partly Cloudy
48°F / 9°C 45°F / 7°C 87% 29.89 in
(1012 mb)
NE 3.5 mph
(NE 6 kph)
- 10SM
08:26
Mostly Cloudy
46°F / 8°C 45°F / 7°C 93% 29.89 in
(1012 mb)
Calm - 10SM
07:53
Mostly Cloudy
46°F / 8°C 45°F / 7°C 93% 29.86 in
(1011 mb)
Calm 0.00 in
(0.00 mm)
10SM
06:53
Overcast
Light Rain
46°F / 8°C 45°F / 7°C 93% 29.8 in
(1009 mb)
NNW 5.8 mph
(NNW 9 kph)
0.01 in
(0.25 mm)
6SM
05:53
Overcast
46°F / 8°C 45°F / 7°C 93% 29.8 in
(1009 mb)
S 3.5 mph
(S 6 kph)
0.19 in
(4.83 mm)
10SM
05:17
Overcast
Light Rain
48°F / 9°C 45°F / 7°C 87% 29.77 in
(1008 mb)
Calm 0.19 in
(4.83 mm)
3SM
05:02
Overcast
Heavy Rain
48°F / 9°C 43°F / 6°C 82% 29.77 in
(1008 mb)
Variable 5.8 mph
(Variable 9 kph)
0.09 in
(2.29 mm)
1 3/4SM
04:53
Overcast
Light Rain
48°F / 9°C 43°F / 6°C 82% 29.74 in
(1007 mb)
N 4.6 mph
(N 7 kph)
0.00 in
(0.00 mm)
7SM
04:43
Overcast
Light Rain
48°F / 9°C 43°F / 6°C 82% 29.74 in
(1007 mb)
Calm 0.00 in
(0.00 mm)
10SM
03:53
Mostly Cloudy
50°F / 10°C 43°F / 6°C 76% 29.71 in
(1006 mb)
SSW 6.9 mph
(SSW 11 kph)
- 10SM
02:53
Partly Cloudy
50°F / 10°C 43°F / 6°C 76% 29.68 in
(1005 mb)
Variable 3.5 mph
(Variable 6 kph)
- 10SM
01:53
Clear
52°F / 11°C 45°F / 7°C 77% 29.65 in
(1004 mb)
NW 5.8 mph
(NW 9 kph)
- 10SM
01:32
Partly Cloudy
52°F / 11°C 45°F / 7°C 77% 29.62 in
(1003 mb)
NW 8.1 mph
(NW 13 kph)
- 10SM
00:53
Overcast
54°F / 12°C 48°F / 9°C 82% 29.62 in
(1003 mb)
N 3.5 mph
(N 6 kph)
- 10SM
00:44
Overcast
52°F / 11°C 48°F / 9°C 88% 29.59 in
(1002 mb)
Calm - 10SM
00:17
Overcast
54°F / 12°C 48°F / 9°C 82% 29.56 in
(1001 mb)
SW 11.5 mph
(SW 19 kph)
- 10SM
Time Weather Temperature Dewpoint Humidity Pressure Winds Precip Visibility


Weather for websites

WeatherForYou.com, LLC is not responsible for any damages or problems caused by this service. Current weather conditions are obtained from the closest station including government and personal stations which may have varying degrees of accuracy. Weather forecasts are derived from the NOAA NDFD. Like all things, this site belongs to Jesus Christ... He just trusts me to maintain it. If you have any questions or comments email webmaster@weatherforyou.com

Copyright © 2014, WeatherForYou.com LLC. All rights reserved.